Погода в Эль-Джадида

Марокко     33°14′25″N   8°30′35″W
темп.,
°C
ветер,
м/с
пор.,
м/с
влажн.,
%
обл.,
%
осадки,
мм/ч
давл.,
гПа
погр.,
м
15 апреля, чт
чт1500:00+16ю11900 1.1 101326
03:00+15ююз449310 1.4 1012115
06:00+16ююз45905 1.4 1011181
09:00+19юз55741 0.1 1012654
12:00+20з77690 0.2 1012833
15:00+20зсз66730 0.0 1011775
18:00+19сз55775 0.0 1012660
21:00+18сз45865 0.0 1014264
16 апреля, пт
пт1600:00+17сз23865 0.0 1013198
03:00+16юз01865 0.3 1013103
06:00+16з12865 0.6 101487
09:00+18ссв447610 0.0 1015651
12:00+19с55720 0.0 1015616
15:00+19с78720 0.0 1015670
18:00+18ссв89770 0.0 1015583
21:00+17ссв79841 0.0 1017464
17 апреля, сб
сб1700:00+17св67845 0.0 1017370
03:00+16св4685100 0.0 1016331
06:00+16всв4585100 0.0 1017315
09:00+18св457320 0.0 1018560
12:00+19ссв66670 0.0 1018621
15:00+20ссв77715 0.0 1017565
18:00+19ссв79795 0.0 1017557
21:00+18св710865 0.0 1019400
18 апреля, вс
вс1800:00+17св69884 0.0 1019347
03:00+16св5889100 0.0 1018301
06:00+16всв5888100 0.0 1018299
09:00+19св67667 0.0 1019517
12:00+20ссв895719 0.0 1019595
15:00+20ссв810595 0.0 1018608
18:00+19ссв8106793 0.0 1018474
21:00+18ссв610794 0.0 1020295
19 апреля, пн
пн1900:00+17св69820 0.0 1019310
03:00+17св57800 0.0 1018281
06:00+16св56759 0.0 1019262
09:00+19ссв67645 0.0 1020659
12:00+20ссв67580 0.0 1019588
15:00+20с78640 0.0 1018631
18:00+19ссв78720 0.0 1018498
21:00+17ссв6883100 0.0 1020329